Torna al catalogo

STARLINK-37919

AttivoComunicazioniVLEO
NORAD 69957·PAYLOAD·🇺🇸 United States

Lanciato Jul 9, 2026 da Cape Canaveral Space Force Station

Loading…

Prossimi Passaggi (prossime 24 ore)

TLE

AggiornatoSource: CelesTrak SupGP

Epoca: Sep 14, 2026, 22:36 UTC

1 69957C 26157Q   26257.94215278 -.00006593  00000+0 -19478-3 0  2570
2 69957  53.1586 359.9877 0001236  81.1627 354.5648 15.34398105    16

Traccia STARLINK-37919 in tempo reale con AllMySat

Download on the App Store